This is the latest recevied weather packets stored in our database for station/object CALDNA-WX. If no packets are shown the sender has not sent any weather packets the latest 10 day(s).
| Time | Temp. | Humidity | Pressure | Rain* | Wind** | Luminosity | Snow |
|---|---|---|---|---|---|---|---|
| 1778251523 | 11.11° C | 59% | 983.7 hPa | 0 mm | - | - | - |
| 1778250640 | 11.11° C | 57% | 983.8 hPa | 0 mm | - | - | - |
| 1778249723 | 10.56° C | 57% | 983.8 hPa | 0 mm | - | - | - |
| 1778248853 | 10° C | 60% | 983.7 hPa | 0 mm | - | - | - |
| 1778247923 | 9.44° C | 70% | 983.5 hPa | 0 mm | - | - | - |
| 1778247038 | 8.33° C | 70% | 983.5 hPa | 0 mm | - | - | - |
| 1778246123 | 7.78° C | 70% | 983.5 hPa | 0 mm | - | - | - |
| 1778245253 | 6.67° C | 70% | 983.5 hPa | 0 mm | - | - | - |
| 1778244323 | 6.11° C | 83% | 982.8 hPa | 0 mm | - | - | - |
| 1778243441 | 5.56° C | 83% | 983.4 hPa | 0 mm | - | - | - |
| 1778242523 | 5° C | 83% | 983.4 hPa | 0 mm | - | - | - |
| 1778241657 | 3.89° C | 83% | 983.4 hPa | 0 mm | - | - | - |
| 1778240722 | 2.78° C | 80% | 982.9 hPa | 0 mm | - | - | - |
| 1778239844 | 2.22° C | 76% | 983.5 hPa | 0 mm | - | - | - |
| 1778238922 | 2.22° C | 76% | 983.6 hPa | 0 mm | - | - | - |
| 1778238046 | 1.67° C | 76% | 983.6 hPa | 0 mm | - | - | - |
| 1778237125 | 1.67° C | 76% | 982.7 hPa | 0 mm | - | - | - |
| 1778236242 | 1.67° C | 75% | 983.7 hPa | 0 mm | - | - | - |
| 1778235325 | 2.22° C | 75% | 983.7 hPa | 0 mm | - | - | - |
| 1778234446 | 2.22° C | 75% | 983.7 hPa | 0 mm | - | - | - |
| 1778233525 | 2.22° C | 74% | 983 hPa | 0 mm | - | - | - |
| 1778232638 | 2.78° C | 81% | 983.7 hPa | 0 mm | - | - | - |
| 1778231725 | 2.78° C | 81% | 983.7 hPa | 0 mm | - | - | - |
| 1778230849 | 2.78° C | 81% | 983.7 hPa | 0 mm | - | - | - |
| 1778229924 | 2.78° C | 77% | 983.2 hPa | 0 mm | - | - | - |
* Rain latest hour (hover to see other rain measurements)
** Current wind speed in m/s (hover to see current wind gust speed)